KLM4N LPPT-EHAM

Flight info

Callsign KLM4N
Flight time 2h 19m
Altitude 40000
Route IXIDA DCT RIVRO DCT TOSDI DCT ZMR DCT NUBLO DCT RONSI DCT DELOG DCT PEXOD DCT DIDIG DCT USODA DCT ERCUT DCT DITAL UN873 BAZOS DCT LUMIL DCT BELOB UY873 DENUT
Aircraft A333/H-SDE3GHIJ2J3J5M1RVWXY/LB2D1

Departure

Time 2026-04-28 07:49
Airport Lisbon Humberto Delgado Airport (LPPT)

Arrival

Time 2026-04-28 10:08
Airport Amsterdam Airport Schiphol (EHAM)
Time Latitude Longitude Altitude Speed Heading
2026-04-28 07:21 38.77427 -9.13155 335 ft 0 kts 78°
2026-04-28 07:37 38.77423 -9.13180 337 ft 4 kts 78°
2026-04-28 07:37 38.77418 -9.13214 335 ft 4 kts 78°
2026-04-28 07:38 38.77413 -9.13244 336 ft 4 kts 85°
2026-04-28 07:38 38.77417 -9.13272 353 ft 4 kts 145°
2026-04-28 07:38 38.77441 -9.13282 353 ft 4 kts 169°
2026-04-28 07:38 38.77450 -9.13285 353 ft 0 kts 168°
2026-04-28 07:43 38.77422 -9.13277 347 ft 5 kts 168°
2026-04-28 07:43 38.77382 -9.13268 351 ft 6 kts 170°
2026-04-28 07:43 38.77344 -9.13275 349 ft 5 kts 217°
2026-04-28 07:43 38.77334 -9.13299 346 ft 4 kts 248°
2026-04-28 07:44 38.77319 -9.13364 354 ft 7 kts 257°
2026-04-28 07:44 38.77310 -9.13416 351 ft 5 kts 257°
2026-04-28 07:44 38.77290 -9.13536 360 ft 21 kts 258°
2026-04-28 07:44 38.77254 -9.13754 360 ft 27 kts 258°
2026-04-28 07:45 38.77220 -9.13847 365 ft 9 kts 213°
2026-04-28 07:45 38.77167 -9.13879 358 ft 10 kts 202°
2026-04-28 07:46 38.77119 -9.13905 362 ft 13 kts 203°
2026-04-28 07:46 38.77051 -9.13942 362 ft 11 kts 202°
2026-04-28 07:46 38.76969 -9.13986 357 ft 15 kts 202°
2026-04-28 07:46 38.76862 -9.14043 356 ft 18 kts 202°
2026-04-28 07:47 38.76739 -9.14108 357 ft 19 kts 202°
2026-04-28 07:47 38.76668 -9.14146 354 ft 1 kts 202°
2026-04-28 07:47 38.76605 -9.14187 355 ft 6 kts 226°
2026-04-28 07:47 38.76595 -9.14214 349 ft 0 kts 252°
2026-04-28 07:48 38.76597 -9.14233 345 ft 11 kts 276°
2026-04-28 07:48 38.76638 -9.14355 335 ft 15 kts 313°
2026-04-28 07:48 38.76751 -9.14334 348 ft 25 kts 21°
2026-04-28 07:48 38.77097 -9.14148 362 ft 83 kts 22°
2026-04-28 07:49 38.77797 -9.13775 373 ft 133 kts 22°
2026-04-28 07:49 38.78760 -9.13259 543 ft 161 kts 21°
2026-04-28 07:49 38.79748 -9.12680 1270 ft 152 kts 24°
2026-04-28 07:49 38.80681 -9.12103 1964 ft 147 kts 27°
2026-04-28 07:50 38.81582 -9.11489 2535 ft 150 kts 30°
2026-04-28 07:50 38.82503 -9.10769 2990 ft 159 kts 33°
2026-04-28 07:50 38.83420 -9.09916 3493 ft 166 kts 39°
2026-04-28 07:50 38.84281 -9.08909 3961 ft 173 kts 45°
2026-04-28 07:51 38.85196 -9.07812 4385 ft 185 kts 43°
2026-04-28 07:51 38.86124 -9.06622 4843 ft 194 kts 47°
2026-04-28 07:51 38.87086 -9.05334 5328 ft 205 kts 46°
2026-04-28 07:51 38.88123 -9.03982 5788 ft 223 kts 45°
2026-04-28 07:52 38.89274 -9.02521 6303 ft 241 kts 45°
2026-04-28 07:52 38.90526 -9.00980 6882 ft 258 kts 44°
2026-04-28 07:52 38.91884 -8.99363 7515 ft 274 kts 43°
2026-04-28 07:52 38.93340 -8.97694 8194 ft 283 kts 41°
2026-04-28 07:53 38.94851 -8.96032 8898 ft 287 kts 40°
2026-04-28 07:53 38.96385 -8.94424 9612 ft 290 kts 39°
2026-04-28 07:53 38.98002 -8.92817 10296 ft 296 kts 37°
2026-04-28 07:53 38.99695 -8.91236 11013 ft 303 kts 35°
2026-04-28 07:54 39.01448 -8.89711 11729 ft 310 kts 33°
2026-04-28 07:54 39.03279 -8.88242 12481 ft 315 kts 31°
2026-04-28 07:54 39.05199 -8.86838 13268 ft 319 kts 28°
2026-04-28 07:54 39.07164 -8.85416 13888 ft 329 kts 32°
2026-04-28 07:55 39.09138 -8.83786 14152 ft 348 kts 33°
2026-04-28 07:55 39.11189 -8.82036 14321 ft 359 kts 34°
2026-04-28 07:55 39.13277 -8.80248 14487 ft 362 kts 34°
2026-04-28 07:55 39.15382 -8.78446 14663 ft 363 kts 34°
2026-04-28 07:56 39.17491 -8.76640 14826 ft 363 kts 34°
2026-04-28 07:56 39.19579 -8.74852 14984 ft 364 kts 34°
2026-04-28 07:56 39.21706 -8.73032 15183 ft 365 kts 34°
2026-04-28 07:56 39.23827 -8.71216 15333 ft 366 kts 34°
2026-04-28 07:57 39.25945 -8.69417 15506 ft 366 kts 34°
2026-04-28 07:57 39.28064 -8.67634 15686 ft 367 kts 34°
2026-04-28 07:57 39.30230 -8.65816 15858 ft 368 kts 34°
2026-04-28 07:57 39.32354 -8.64032 16021 ft 369 kts 34°
2026-04-28 07:58 39.34494 -8.62180 16215 ft 369 kts 38°
2026-04-28 07:58 39.36434 -8.59987 16385 ft 369 kts 44°
2026-04-28 07:58 39.38239 -8.57667 16560 ft 370 kts 47°
2026-04-28 07:58 39.40000 -8.55233 16749 ft 371 kts 49°
2026-04-28 07:59 39.41721 -8.52752 16922 ft 371 kts 49°
2026-04-28 07:59 39.43441 -8.50222 17092 ft 372 kts 50°
2026-04-28 07:59 39.45155 -8.47688 17301 ft 373 kts 50°
2026-04-28 07:59 39.46855 -8.45181 17469 ft 374 kts 50°
2026-04-28 08:00 39.48579 -8.42647 17649 ft 375 kts 50°
2026-04-28 08:00 39.50315 -8.40102 17850 ft 376 kts 49°
2026-04-28 08:00 39.51469 -8.38415 17967 ft 377 kts 49°
2026-04-28 08:00 39.53790 -8.35024 18206 ft 379 kts 49°
2026-04-28 08:01 39.54955 -8.33321 18312 ft 380 kts 49°
2026-04-28 08:01 39.56723 -8.30737 18482 ft 383 kts 50°
2026-04-28 08:01 39.58501 -8.28137 18646 ft 385 kts 50°
2026-04-28 08:01 39.60263 -8.25557 18807 ft 386 kts 50°
2026-04-28 08:02 39.62064 -8.22914 19046 ft 395 kts 49°
2026-04-28 08:02 39.64508 -8.19327 19830 ft 397 kts 49°
2026-04-28 08:02 39.65724 -8.17542 20199 ft 398 kts 49°
2026-04-28 08:02 39.67548 -8.14861 20770 ft 401 kts 50°
2026-04-28 08:03 39.69420 -8.12106 21252 ft 405 kts 50°
2026-04-28 08:03 39.71273 -8.09378 21777 ft 408 kts 50°
2026-04-28 08:03 39.73159 -8.06597 22273 ft 412 kts 50°
2026-04-28 08:03 39.75078 -8.03767 22781 ft 415 kts 50°
2026-04-28 08:04 39.76980 -8.00958 23280 ft 418 kts 50°
2026-04-28 08:04 39.78898 -7.98124 23712 ft 422 kts 50°
2026-04-28 08:04 39.80863 -7.95216 24108 ft 425 kts 50°
2026-04-28 08:04 39.82812 -7.92330 24524 ft 428 kts 50°
2026-04-28 08:05 39.84773 -7.89424 24936 ft 431 kts 50°
2026-04-28 08:05 39.86766 -7.86468 25345 ft 433 kts 50°
2026-04-28 08:05 39.88763 -7.83503 25721 ft 436 kts 50°
2026-04-28 08:05 39.90753 -7.80545 26109 ft 439 kts 50°
2026-04-28 08:06 39.91701 -7.79135 26273 ft 440 kts 50°
2026-04-28 08:06 39.93717 -7.76134 26656 ft 443 kts 50°
2026-04-28 08:06 39.95738 -7.73122 27018 ft 446 kts 50°
2026-04-28 08:06 39.97788 -7.70065 27394 ft 448 kts 50°
2026-04-28 08:07 39.99835 -7.67010 27759 ft 451 kts 50°
2026-04-28 08:07 40.01903 -7.63919 28104 ft 454 kts 50°
2026-04-28 08:07 40.03991 -7.60796 28437 ft 457 kts 50°
2026-04-28 08:07 40.06073 -7.57678 28821 ft 459 kts 50°
2026-04-28 08:08 40.08178 -7.54523 29171 ft 461 kts 50°
2026-04-28 08:08 40.10303 -7.51335 29516 ft 464 kts 50°
2026-04-28 08:08 40.12414 -7.48163 29859 ft 466 kts 50°
2026-04-28 08:08 40.14557 -7.44941 30139 ft 469 kts 50°
2026-04-28 08:09 40.16689 -7.41732 30423 ft 471 kts 50°
2026-04-28 08:09 40.18854 -7.38471 30710 ft 473 kts 50°
2026-04-28 08:09 40.20990 -7.35249 30989 ft 475 kts 50°
2026-04-28 08:09 40.23161 -7.31972 31273 ft 477 kts 50°
2026-04-28 08:10 40.27506 -7.25401 31420 ft 480 kts 50°
2026-04-28 08:10 40.29695 -7.22085 31696 ft 481 kts 50°
2026-04-28 08:10 40.31865 -7.18794 31972 ft 478 kts 50°
2026-04-28 08:11 40.34019 -7.15526 31820 ft 471 kts 50°
2026-04-28 08:11 40.36180 -7.12241 31880 ft 478 kts 50°
2026-04-28 08:11 40.38369 -7.08910 32069 ft 482 kts 50°
2026-04-28 08:11 40.40540 -7.05602 32325 ft 484 kts 50°
2026-04-28 08:12 40.42734 -7.02258 32629 ft 483 kts 50°
2026-04-28 08:12 40.44916 -6.98929 32660 ft 479 kts 50°
2026-04-28 08:12 40.47102 -6.95590 32812 ft 483 kts 50°
2026-04-28 08:12 40.49293 -6.92237 33163 ft 483 kts 50°
2026-04-28 08:13 40.51480 -6.88888 33448 ft 481 kts 50°
2026-04-28 08:13 40.53638 -6.85580 33731 ft 481 kts 50°
2026-04-28 08:13 40.55819 -6.82232 34067 ft 480 kts 50°
2026-04-28 08:13 40.57996 -6.78889 34421 ft 478 kts 50°
2026-04-28 08:14 40.60145 -6.75583 34709 ft 477 kts 50°
2026-04-28 08:14 40.62399 -6.72354 34994 ft 477 kts 44°
2026-04-28 08:14 40.64807 -6.69369 35271 ft 477 kts 43°
2026-04-28 08:14 40.67237 -6.66444 35554 ft 476 kts 42°
2026-04-28 08:15 40.69723 -6.63507 35828 ft 476 kts 42°
2026-04-28 08:15 40.72178 -6.60630 36089 ft 475 kts 42°
2026-04-28 08:15 40.74651 -6.57739 36344 ft 475 kts 42°
2026-04-28 08:15 40.77119 -6.54850 36605 ft 475 kts 42°
2026-04-28 08:16 40.79599 -6.51939 36848 ft 474 kts 42°
2026-04-28 08:16 40.82048 -6.49057 37097 ft 474 kts 42°
2026-04-28 08:16 40.84513 -6.46149 37357 ft 473 kts 42°
2026-04-28 08:16 40.86956 -6.43262 37629 ft 472 kts 42°
2026-04-28 08:17 40.89380 -6.40393 37852 ft 472 kts 42°
2026-04-28 08:17 40.91838 -6.37480 38104 ft 471 kts 42°
2026-04-28 08:17 40.94260 -6.34608 38332 ft 471 kts 42°
2026-04-28 08:17 40.96717 -6.31691 38558 ft 471 kts 42°
2026-04-28 08:18 40.99149 -6.28801 38779 ft 470 kts 42°
2026-04-28 08:18 41.01563 -6.25930 38932 ft 470 kts 42°
2026-04-28 08:18 41.03987 -6.23042 39091 ft 470 kts 42°
2026-04-28 08:18 41.06435 -6.20123 39230 ft 470 kts 42°
2026-04-28 08:19 41.08861 -6.17226 39371 ft 471 kts 42°
2026-04-28 08:19 41.11299 -6.14314 39521 ft 471 kts 42°
2026-04-28 08:19 41.13706 -6.11434 39664 ft 471 kts 42°
2026-04-28 08:19 41.16147 -6.08511 39793 ft 471 kts 43°
2026-04-28 08:20 41.18586 -6.05589 39922 ft 472 kts 42°
2026-04-28 08:20 41.21006 -6.02685 39973 ft 474 kts 42°
2026-04-28 08:20 41.25941 -5.96754 39976 ft 482 kts 42°
2026-04-28 08:21 41.30963 -5.90705 39981 ft 489 kts 42°
2026-04-28 08:21 41.36014 -5.84610 39982 ft 495 kts 42°
2026-04-28 08:22 41.41154 -5.78393 39981 ft 502 kts 42°
2026-04-28 08:22 41.46347 -5.72099 39983 ft 505 kts 42°
2026-04-28 08:23 41.51602 -5.65904 39982 ft 505 kts 36°
2026-04-28 08:23 41.57698 -5.61359 39983 ft 505 kts 24°
2026-04-28 08:24 41.64131 -5.57601 39993 ft 505 kts 22°
2026-04-28 08:24 41.70613 -5.54001 39988 ft 504 kts 22°
2026-04-28 08:25 41.77071 -5.50398 39986 ft 504 kts 22°
2026-04-28 08:26 41.86768 -5.44914 39997 ft 504 kts 22°
2026-04-28 08:26 41.93239 -5.41229 39993 ft 504 kts 22°
2026-04-28 08:27 41.99667 -5.37562 39998 ft 504 kts 22°
2026-04-28 08:27 42.06125 -5.33870 39999 ft 504 kts 22°
2026-04-28 08:28 42.12581 -5.30173 40004 ft 504 kts 22°
2026-04-28 08:28 42.19018 -5.26477 40004 ft 504 kts 22°
2026-04-28 08:29 42.25456 -5.22774 40004 ft 504 kts 22°
2026-04-28 08:29 42.31915 -5.19050 40008 ft 504 kts 22°
2026-04-28 08:30 42.38370 -5.15319 40011 ft 504 kts 22°
2026-04-28 08:30 42.44808 -5.11591 40010 ft 504 kts 22°
2026-04-28 08:31 42.51221 -5.07868 40002 ft 504 kts 22°
2026-04-28 08:31 42.57675 -5.04114 40016 ft 505 kts 22°
2026-04-28 08:32 42.64150 -5.00338 40003 ft 505 kts 22°
2026-04-28 08:32 42.70575 -4.96583 40008 ft 505 kts 22°
2026-04-28 08:33 42.77044 -4.92792 40009 ft 505 kts 22°
2026-04-28 08:33 42.83464 -4.89021 40019 ft 505 kts 22°
2026-04-28 08:34 42.89919 -4.85221 40027 ft 505 kts 22°
2026-04-28 08:34 42.96357 -4.81424 40021 ft 505 kts 22°
2026-04-28 08:35 43.02824 -4.77599 40028 ft 505 kts 22°
2026-04-28 08:35 43.09240 -4.73795 40025 ft 505 kts 22°
2026-04-28 08:36 43.15701 -4.69959 40038 ft 505 kts 22°
2026-04-28 08:36 43.22123 -4.66136 40045 ft 505 kts 22°
2026-04-28 08:37 43.28596 -4.62273 40048 ft 505 kts 22°
2026-04-28 08:37 43.35016 -4.58433 40052 ft 502 kts 22°
2026-04-28 08:38 43.41366 -4.54624 40045 ft 491 kts 22°
2026-04-28 08:38 43.47565 -4.50898 40049 ft 480 kts 22°
2026-04-28 08:39 43.53598 -4.47264 40046 ft 470 kts 22°
2026-04-28 08:39 43.59559 -4.43666 40050 ft 461 kts 22°
2026-04-28 08:40 43.65353 -4.40161 40046 ft 453 kts 22°
2026-04-28 08:40 43.71091 -4.36684 40053 ft 449 kts 22°
2026-04-28 08:41 43.76875 -4.33174 40056 ft 457 kts 22°
2026-04-28 08:41 43.82719 -4.29620 40050 ft 465 kts 22°
2026-04-28 08:42 43.88699 -4.25973 40050 ft 472 kts 22°
2026-04-28 08:42 43.94777 -4.22257 40049 ft 480 kts 22°
2026-04-28 08:43 44.00905 -4.18502 40051 ft 487 kts 22°
2026-04-28 08:43 44.07176 -4.14650 40049 ft 494 kts 22°
2026-04-28 08:44 44.13485 -4.10767 40046 ft 501 kts 22°
2026-04-28 08:44 44.19913 -4.06800 40049 ft 508 kts 22°
2026-04-28 08:45 44.26342 -4.02823 40045 ft 508 kts 22°
2026-04-28 08:45 44.32766 -3.98590 40048 ft 510 kts 30°
2026-04-28 08:46 44.38715 -3.93216 40049 ft 510 kts 32°
2026-04-28 08:46 44.44557 -3.87605 40048 ft 511 kts 33°
2026-04-28 08:47 44.50404 -3.81909 40051 ft 511 kts 33°
2026-04-28 08:47 44.56217 -3.76251 40057 ft 510 kts 33°
2026-04-28 08:48 44.62064 -3.70564 40048 ft 509 kts 33°
2026-04-28 08:48 44.67846 -3.64936 40051 ft 509 kts 33°
2026-04-28 08:49 44.73680 -3.59243 40052 ft 509 kts 33°
2026-04-28 08:49 44.79468 -3.53579 40053 ft 509 kts 33°
2026-04-28 08:50 44.85291 -3.47867 40050 ft 509 kts 33°
2026-04-28 08:50 44.91074 -3.42180 40052 ft 510 kts 33°
2026-04-28 08:51 44.96870 -3.36465 40059 ft 509 kts 33°
2026-04-28 08:51 45.02685 -3.30717 40055 ft 509 kts 33°
2026-04-28 08:52 45.07508 -3.25939 40057 ft 509 kts 33°
2026-04-28 08:52 45.14262 -3.19230 40060 ft 508 kts 33°
2026-04-28 08:53 45.19070 -3.14442 40062 ft 507 kts 33°
2026-04-28 08:53 45.25782 -3.07742 40068 ft 508 kts 33°
2026-04-28 08:54 45.30624 -3.02896 40067 ft 508 kts 33°
2026-04-28 08:54 45.36350 -2.97073 40074 ft 507 kts 33°
2026-04-28 08:55 45.42071 -2.91160 40072 ft 507 kts 33°
2026-04-28 08:55 45.47746 -2.85274 40072 ft 507 kts 33°
2026-04-28 08:56 45.53460 -2.79345 40074 ft 507 kts 33°
2026-04-28 08:56 45.59128 -2.73454 40078 ft 506 kts 33°
2026-04-28 08:57 45.64839 -2.67505 40079 ft 506 kts 33°
2026-04-28 08:57 45.70509 -2.61583 40079 ft 506 kts 33°
2026-04-28 08:58 45.76194 -2.55630 40092 ft 505 kts 34°
2026-04-28 08:58 45.81837 -2.49705 40088 ft 505 kts 34°
2026-04-28 08:59 45.87507 -2.43736 40074 ft 505 kts 34°
2026-04-28 08:59 45.93144 -2.37788 40078 ft 505 kts 34°
2026-04-28 09:00 45.98823 -2.31779 40085 ft 505 kts 34°
2026-04-28 09:00 46.04454 -2.25807 40088 ft 505 kts 33°
2026-04-28 09:01 46.10247 -2.20080 40089 ft 504 kts 31°
2026-04-28 09:01 46.16142 -2.14575 40100 ft 503 kts 30°
2026-04-28 09:02 46.22000 -2.09098 40089 ft 503 kts 30°
2026-04-28 09:02 46.27842 -2.03572 40086 ft 503 kts 31°
2026-04-28 09:03 46.33698 -1.97992 40092 ft 504 kts 31°
2026-04-28 09:03 46.39555 -1.92392 40081 ft 503 kts 31°
2026-04-28 09:04 46.45400 -1.86790 40080 ft 503 kts 31°
2026-04-28 09:04 46.51218 -1.81201 40085 ft 503 kts 31°
2026-04-28 09:05 46.57072 -1.75563 40087 ft 502 kts 31°
2026-04-28 09:05 46.62875 -1.69959 40079 ft 502 kts 31°
2026-04-28 09:06 46.68707 -1.64314 40076 ft 502 kts 31°
2026-04-28 09:06 46.74511 -1.58680 40077 ft 503 kts 31°
2026-04-28 09:07 46.80307 -1.53039 40078 ft 503 kts 31°
2026-04-28 09:07 46.86156 -1.47331 40070 ft 503 kts 31°
2026-04-28 09:08 46.91938 -1.41675 40076 ft 503 kts 31°
2026-04-28 09:08 46.97556 -1.35531 40082 ft 507 kts 42°
2026-04-28 09:09 47.02456 -1.28060 40079 ft 508 kts 45°
2026-04-28 09:09 47.07185 -1.20344 40089 ft 509 kts 46°
2026-04-28 09:10 47.11890 -1.12558 40086 ft 509 kts 46°
2026-04-28 09:10 47.16566 -1.04835 40084 ft 509 kts 46°
2026-04-28 09:11 47.21297 -0.97029 40089 ft 509 kts 46°
2026-04-28 09:11 47.25990 -0.89273 40099 ft 509 kts 46°
2026-04-28 09:12 47.30702 -0.81464 40090 ft 509 kts 46°
2026-04-28 09:12 47.35380 -0.73687 40098 ft 510 kts 46°
2026-04-28 09:13 47.40087 -0.65838 40097 ft 510 kts 46°
2026-04-28 09:13 47.45053 -0.58361 40100 ft 507 kts 37°
2026-04-28 09:14 47.50577 -0.51956 40101 ft 506 kts 35°
2026-04-28 09:14 47.56225 -0.45716 40103 ft 506 kts 34°
2026-04-28 09:15 47.61851 -0.39536 40105 ft 505 kts 34°
2026-04-28 09:15 47.67488 -0.33302 40102 ft 505 kts 34°
2026-04-28 09:16 47.73110 -0.27047 40102 ft 505 kts 34°
2026-04-28 09:16 47.78738 -0.20762 40102 ft 505 kts 34°
2026-04-28 09:17 47.84332 -0.14497 40107 ft 506 kts 34°
2026-04-28 09:17 47.89969 -0.08167 40111 ft 505 kts 34°
2026-04-28 09:18 47.95578 -0.01852 40108 ft 506 kts 34°
2026-04-28 09:18 48.01180 0.04473 40104 ft 506 kts 34°
2026-04-28 09:19 48.06785 0.10820 40103 ft 507 kts 34°
2026-04-28 09:19 48.12390 0.17184 40106 ft 507 kts 34°
2026-04-28 09:20 48.18019 0.23593 40112 ft 507 kts 34°
2026-04-28 09:20 48.23606 0.29973 40123 ft 507 kts 35°
2026-04-28 09:21 48.29215 0.36396 40115 ft 506 kts 35°
2026-04-28 09:21 48.34803 0.42813 40119 ft 506 kts 35°
2026-04-28 09:22 48.40385 0.49241 40121 ft 507 kts 35°
2026-04-28 09:22 48.45987 0.55710 40118 ft 506 kts 35°
2026-04-28 09:23 48.51575 0.62183 40121 ft 506 kts 35°
2026-04-28 09:23 48.57173 0.68685 40123 ft 506 kts 35°
2026-04-28 09:24 48.62725 0.75152 40117 ft 506 kts 36°
2026-04-28 09:24 48.68300 0.81664 40126 ft 504 kts 36°
2026-04-28 09:25 48.73862 0.88177 40118 ft 505 kts 36°
2026-04-28 09:25 48.79421 0.94616 40121 ft 505 kts 35°
2026-04-28 09:26 48.85043 1.01077 40128 ft 505 kts 35°
2026-04-28 09:26 48.90629 1.07515 40126 ft 505 kts 35°
2026-04-28 09:27 48.98995 1.17208 40130 ft 505 kts 36°
2026-04-28 09:27 49.04421 1.23967 40130 ft 506 kts 40°
2026-04-28 09:28 49.09598 1.31265 40132 ft 504 kts 42°
2026-04-28 09:28 49.14682 1.38614 40127 ft 506 kts 42°
2026-04-28 09:29 49.19795 1.46047 40125 ft 506 kts 42°
2026-04-28 09:29 49.24875 1.53440 40130 ft 506 kts 42°
2026-04-28 09:30 49.29967 1.60858 40138 ft 505 kts 42°
2026-04-28 09:30 49.35037 1.68261 40124 ft 505 kts 42°
2026-04-28 09:31 49.40138 1.75729 40122 ft 505 kts 42°
2026-04-28 09:31 49.45212 1.83182 40121 ft 506 kts 42°
2026-04-28 09:32 49.50298 1.90652 40128 ft 505 kts 40°
2026-04-28 09:32 49.55804 1.97332 40128 ft 501 kts 35°
2026-04-28 09:33 49.61394 2.03712 40129 ft 501 kts 35°
2026-04-28 09:33 49.67018 2.10065 40130 ft 501 kts 35°
2026-04-28 09:34 49.72653 2.16454 40135 ft 502 kts 35°
2026-04-28 09:34 49.78231 2.22815 40137 ft 499 kts 36°
2026-04-28 09:35 49.83811 2.29203 40142 ft 500 kts 35°
2026-04-28 09:35 49.89409 2.35629 40147 ft 500 kts 36°
2026-04-28 09:36 49.94986 2.42052 40158 ft 499 kts 36°
2026-04-28 09:36 50.00559 2.48491 40155 ft 498 kts 35°
2026-04-28 09:37 50.06089 2.54894 40158 ft 498 kts 35°
2026-04-28 09:37 50.11667 2.61375 40156 ft 498 kts 35°
2026-04-28 09:38 50.17197 2.67816 40163 ft 497 kts 35°
2026-04-28 09:38 50.22720 2.74271 40162 ft 494 kts 36°
2026-04-28 09:39 50.28208 2.80706 40160 ft 495 kts 36°
2026-04-28 09:39 50.33726 2.87192 40173 ft 495 kts 36°
2026-04-28 09:40 50.39214 2.93664 40186 ft 494 kts 36°
2026-04-28 09:40 50.44967 2.99381 40430 ft 490 kts 28°
2026-04-28 09:41 50.47947 3.01982 40627 ft 488 kts 27°
2026-04-28 09:41 50.50935 3.04530 40787 ft 487 kts 27°
2026-04-28 09:41 50.56890 3.09540 40976 ft 487 kts 27°
2026-04-28 09:42 50.62804 3.14521 40932 ft 478 kts 27°
2026-04-28 09:42 50.65687 3.16961 40711 ft 473 kts 28°
2026-04-28 09:42 50.68606 3.19438 40133 ft 474 kts 27°
2026-04-28 09:43 50.71535 3.21917 39527 ft 476 kts 27°
2026-04-28 09:43 50.74427 3.24331 38929 ft 477 kts 27°
2026-04-28 09:43 50.77383 3.26792 38201 ft 479 kts 27°
2026-04-28 09:43 50.80313 3.29233 37421 ft 481 kts 27°
2026-04-28 09:44 50.83293 3.31720 36630 ft 484 kts 28°
2026-04-28 09:44 50.86274 3.34211 35945 ft 485 kts 28°
2026-04-28 09:44 50.89266 3.36717 35267 ft 485 kts 29°
2026-04-28 09:44 50.91243 3.38374 34783 ft 486 kts 29°
2026-04-28 09:45 50.94257 3.40905 34010 ft 488 kts 29°
2026-04-28 09:45 50.98252 3.44266 32702 ft 494 kts 28°
2026-04-28 09:45 51.00305 3.45996 32067 ft 496 kts 28°
2026-04-28 09:45 51.03329 3.48546 31245 ft 498 kts 28°
2026-04-28 09:46 51.06387 3.51129 30686 ft 493 kts 28°
2026-04-28 09:46 51.09413 3.53688 29946 ft 492 kts 27°
2026-04-28 09:46 51.12416 3.56231 29399 ft 485 kts 28°
2026-04-28 09:46 51.15386 3.58750 28774 ft 480 kts 28°
2026-04-28 09:47 51.18318 3.61240 28182 ft 475 kts 28°
2026-04-28 09:47 51.21199 3.63675 27615 ft 470 kts 27°
2026-04-28 09:47 51.24264 3.65460 27003 ft 465 kts 11°
2026-04-28 09:47 51.27471 3.65906 26440 ft 460 kts 359°
2026-04-28 09:48 51.30662 3.65781 25808 ft 456 kts 358°
2026-04-28 09:48 51.33771 3.65601 24884 ft 447 kts 359°
2026-04-28 09:48 51.36879 3.65441 23727 ft 442 kts 360°
2026-04-28 09:48 51.39928 3.65310 22477 ft 433 kts 360°
2026-04-28 09:49 51.42919 3.65197 21285 ft 425 kts
2026-04-28 09:49 51.45816 3.65097 20156 ft 417 kts
2026-04-28 09:49 51.48685 3.65002 19073 ft 409 kts
2026-04-28 09:49 51.51534 3.64912 17795 ft 406 kts 360°
2026-04-28 09:50 51.54313 3.64822 16993 ft 388 kts
2026-04-28 09:50 51.56925 3.64737 16242 ft 372 kts
2026-04-28 09:50 51.59463 3.64656 15697 ft 355 kts
2026-04-28 09:50 51.61914 3.64581 15251 ft 350 kts
2026-04-28 09:51 51.64348 3.64508 14807 ft 347 kts
2026-04-28 09:51 51.66730 3.64436 14377 ft 345 kts
2026-04-28 09:51 51.69122 3.64529 13920 ft 340 kts
2026-04-28 09:51 51.71368 3.65557 13461 ft 331 kts 28°
2026-04-28 09:52 51.73207 3.67662 13041 ft 320 kts 48°
2026-04-28 09:52 51.74547 3.70424 12656 ft 312 kts 58°
2026-04-28 09:52 51.75721 3.73367 12268 ft 308 kts 60°
2026-04-28 09:52 51.76849 3.76279 11883 ft 304 kts 60°
2026-04-28 09:53 51.77957 3.79135 11486 ft 301 kts 60°
2026-04-28 09:53 51.79072 3.81997 11094 ft 298 kts 60°
2026-04-28 09:53 51.80179 3.84828 10693 ft 295 kts 59°
2026-04-28 09:53 51.81254 3.87570 10515 ft 284 kts 59°
2026-04-28 09:54 51.82282 3.90192 10427 ft 271 kts 60°
2026-04-28 09:54 51.83279 3.92733 10339 ft 262 kts 60°
2026-04-28 09:54 51.84240 3.95189 10211 ft 255 kts 60°
2026-04-28 09:54 51.85173 3.97576 9919 ft 253 kts 60°
2026-04-28 09:55 51.86113 3.99986 9612 ft 252 kts 60°
2026-04-28 09:55 51.87048 4.02382 9328 ft 250 kts 60°
2026-04-28 09:55 51.87978 4.04769 9042 ft 248 kts 60°
2026-04-28 09:55 51.88887 4.07102 8742 ft 247 kts 60°
2026-04-28 09:56 51.89800 4.09448 8482 ft 245 kts 60°
2026-04-28 09:56 51.90716 4.11793 8199 ft 244 kts 59°
2026-04-28 09:56 51.91796 4.13915 7911 ft 246 kts 48°
2026-04-28 09:56 51.93056 4.15758 7627 ft 246 kts 44°
2026-04-28 09:57 51.94371 4.17565 7325 ft 246 kts 44°
2026-04-28 09:57 51.95685 4.19357 7044 ft 246 kts 44°
2026-04-28 09:57 51.96556 4.20550 6844 ft 246 kts 44°
2026-04-28 09:57 51.96643 4.20668 6810 ft 246 kts 44°
2026-04-28 09:58 51.97951 4.22464 6496 ft 246 kts 44°
2026-04-28 09:58 51.99256 4.24267 6197 ft 245 kts 44°
2026-04-28 09:58 52.00406 4.25857 5931 ft 244 kts 44°
2026-04-28 09:58 52.00717 4.26288 5857 ft 243 kts 44°
2026-04-28 09:59 52.02007 4.28072 5541 ft 243 kts 44°
2026-04-28 09:59 52.03273 4.29827 5273 ft 242 kts 44°
2026-04-28 09:59 52.04552 4.31601 4967 ft 241 kts 44°
2026-04-28 09:59 52.05824 4.33367 4661 ft 239 kts 44°
2026-04-28 10:00 52.07068 4.35095 4307 ft 238 kts 44°
2026-04-28 10:00 52.07313 4.35437 4200 ft 239 kts 44°
2026-04-28 10:00 52.08106 4.36540 3898 ft 243 kts 44°
2026-04-28 10:00 52.09394 4.38331 3513 ft 243 kts 44°
2026-04-28 10:01 52.09666 4.38707 3453 ft 242 kts 44°
2026-04-28 10:01 52.10922 4.40455 3143 ft 239 kts 44°
2026-04-28 10:01 52.12181 4.42209 2855 ft 236 kts 44°
2026-04-28 10:01 52.13420 4.43935 2559 ft 234 kts 45°
2026-04-28 10:02 52.14651 4.45652 2259 ft 231 kts 44°
2026-04-28 10:02 52.15859 4.47363 2013 ft 229 kts 45°
2026-04-28 10:02 52.17037 4.49038 1953 ft 218 kts 45°
2026-04-28 10:02 52.18143 4.50583 1951 ft 205 kts 45°
2026-04-28 10:03 52.19197 4.52042 1956 ft 191 kts 45°
2026-04-28 10:03 52.20162 4.53374 1980 ft 175 kts 45°
2026-04-28 10:03 52.20582 4.53954 1978 ft 168 kts 45°
2026-04-28 10:03 52.20689 4.54101 1978 ft 166 kts 45°
2026-04-28 10:04 52.21521 4.55256 1967 ft 152 kts 47°
2026-04-28 10:04 52.22206 4.56494 1975 ft 141 kts 59°
2026-04-28 10:04 52.22732 4.57757 1972 ft 128 kts 62°
2026-04-28 10:04 52.22890 4.58145 1942 ft 124 kts 61°
2026-04-28 10:05 52.23238 4.59025 1967 ft 122 kts 62°
2026-04-28 10:05 52.23689 4.60197 1969 ft 122 kts 62°
2026-04-28 10:05 52.24144 4.61365 1811 ft 123 kts 61°
2026-04-28 10:06 52.24604 4.62548 1624 ft 122 kts 62°
2026-04-28 10:06 52.25056 4.63724 1462 ft 122 kts 60°
2026-04-28 10:06 52.25507 4.64896 1290 ft 121 kts 59°
2026-04-28 10:06 52.25953 4.66051 1108 ft 121 kts 58°
2026-04-28 10:07 52.26410 4.67208 908 ft 121 kts 58°
2026-04-28 10:07 52.26839 4.68356 736 ft 119 kts 59°
2026-04-28 10:07 52.27279 4.69524 605 ft 120 kts 55°
2026-04-28 10:07 52.27731 4.70687 437 ft 121 kts 55°
2026-04-28 10:08 52.28184 4.71825 307 ft 121 kts 58°
2026-04-28 10:08 52.28622 4.72976 136 ft 118 kts 57°
2026-04-28 10:08 52.29062 4.74100 5 ft 115 kts 56°
2026-04-28 10:08 52.29377 4.74937 2 ft 47 kts 58°
2026-04-28 10:09 52.29447 4.75117 1 ft 23 kts 58°
2026-04-28 10:09 52.29576 4.75349 2 ft 27 kts 14°
2026-04-28 10:09 52.29691 4.75296 3 ft 9 kts 337°
2026-04-28 10:09 52.29752 4.75284 3 ft 12 kts
2026-04-28 10:10 52.29861 4.75394 3 ft 23 kts 51°
2026-04-28 10:10 52.29953 4.75630 3 ft 25 kts 57°
2026-04-28 10:10 52.30046 4.75869 3 ft 25 kts 58°
2026-04-28 10:10 52.30137 4.76109 3 ft 25 kts 58°
2026-04-28 10:11 52.30227 4.76344 3 ft 25 kts 58°
2026-04-28 10:11 52.30321 4.76572 3 ft 22 kts 41°
2026-04-28 10:11 52.30384 4.76578 3 ft 6 kts 319°
2026-04-28 10:11 52.30467 4.76476 3 ft 17 kts 328°
2026-04-28 10:12 52.30478 4.76466 3 ft 0 kts 328°
2026-04-28 10:12 52.30500 4.76459 3 ft 3 kts
2026-04-28 10:13 52.30521 4.76483 3 ft 1 kts 44°
2026-04-28 10:13 52.30530 4.76501 3 ft 2 kts 52°